This is the latest recevied weather packets stored in our database for station/object KK7RJD. If no packets are shown the sender has not sent any weather packets the latest 10 day(s).
| Time | Temp. | Humidity | Pressure | Rain* | Wind** | Luminosity | Snow |
|---|---|---|---|---|---|---|---|
| 1777940134 | 10.56° C | 41% | 1012.8 hPa | 0 mm | - | 109 W/m² | - |
| 1777939831 | 10.56° C | 40% | 1012.7 hPa | 0 mm | - | 98 W/m² | - |
| 1777939529 | 10.56° C | 40% | 1012.8 hPa | 0 mm | - | 86 W/m² | - |
| 1777939226 | 10.56° C | 39% | 1012.7 hPa | 0 mm | - | 99 W/m² | - |
| 1777938923 | 10.56° C | 40% | 1012.7 hPa | 0 mm | - | 104 W/m² | - |
| 1777938619 | 10.56° C | 40% | 1012.6 hPa | 0 mm | - | 115 W/m² | - |
| 1777938316 | 10.56° C | 40% | 1012.5 hPa | 0 mm | - | 131 W/m² | - |
| 1777938013 | 10.56° C | 41% | 1012.7 hPa | 0 mm | - | 150 W/m² | - |
| 1777937708 | 10.56° C | 41% | 1012.6 hPa | 0 mm | - | 160 W/m² | - |
| 1777937406 | 11.11° C | 40% | 1012.5 hPa | 0 mm | - | 167 W/m² | - |
| 1777937103 | 11.67° C | 40% | 1012.4 hPa | 0 mm | - | 263 W/m² | - |
| 1777936800 | 12.22° C | 39% | 1012.3 hPa | 0 mm | - | 214 W/m² | - |
| 1777936496 | 12.22° C | 39% | 1012.1 hPa | 0 mm | - | 548 W/m² | - |
| 1777936193 | 12.22° C | 40% | 1012.1 hPa | 0 mm | - | 564 W/m² | - |
| 1777935889 | 12.22° C | 41% | 1012.3 hPa | 0 mm | - | 559 W/m² | - |
| 1777935589 | 12.22° C | 42% | 1012.3 hPa | 0 mm | - | 550 W/m² | - |
| 1777935285 | 12.22° C | 42% | 1012.1 hPa | 0 mm | - | 544 W/m² | - |
| 1777934982 | 11.67° C | 41% | 1012 hPa | 0 mm | - | 567 W/m² | - |
| 1777934678 | 12.22° C | 39% | 1012.1 hPa | 0 mm | - | 474 W/m² | - |
| 1777934376 | 12.22° C | 41% | 1012.1 hPa | 0 mm | - | 455 W/m² | - |
| 1777934071 | 12.78° C | 39% | 1012 hPa | 0 mm | - | 599 W/m² | - |
| 1777933767 | 12.78° C | 40% | 1012 hPa | 0 mm | - | 495 W/m² | - |
| 1777933465 | 12.78° C | 40% | 1011.9 hPa | 0 mm | - | 297 W/m² | - |
| 1777933163 | 12.78° C | 39% | 1012.1 hPa | 0 mm | - | 684 W/m² | - |
| 1777932859 | 13.33° C | 38% | 1012 hPa | 0 mm | - | 689 W/m² | - |
* Rain latest hour (hover to see other rain measurements)
** Current wind speed in m/s (hover to see current wind gust speed)